Location: Ballingbuur
(53.0000°N, 5.7667°E)
Time: 04:49:42
(UTC+00:00)

FALCON 9 DEB - Pass Details

Date: 29 November 2020
Orbit: 424 x 438 km, 53.0° (Epoch: 23 January)

Event Time Altitude Azimuth Distance (km) Brightness Sun altitude
Exits shadow 05:59:35 20° 276° (W) 1,095 4.5 -12.1°
Maximum altitude 06:01:54 69° 196° (SSW) 473 3.3 -11.8°
Drops below altitude 10° 06:05:22 10° 113° (ESE) 1,548 7.5 -11.3°
Sets 06:07:28 0° 111° (ESE) 2,412 9.2 -11.0°
